Preview of NWS' New Version of Forecast
This preview is not operational and should not be used for support decisions.

Regional Weather Roundup (RWR)

Issued by National Weather Service (NWS)

                            
000
ASUS44 KJAN 152110
RWRMS 

MISSISSIPPI HOURLY WEATHER ROUNDUP
NATIONAL WEATHER SERVICE JACKSON MS
400 PM CDT SUN SEP 15 2019

NOTE: "FAIR: INDICATES FEW OR NO CLOUDS BELOW 12,000 FEET WITH NO
SIGNIFICANT WEATHER AND/OR OBSTRUCTIONS TO VISIBILITY.

MSZ001>002-007>008-010>013-018>021-025>028-034>036-152200-
NORTHWEST MISSISSIPPI
  
CITY           SKY/WX    TMP DP  RH WIND       PRES   REMARKS
BATESVILLE     FAIR      97  68  38 VRB5      30.03F HX 101           
CLARKSDALE       N/A     97  68  38 NE10      30.03F HX 101           
CLEVELAND      FAIR      95  68  41 E9        30.02S HX 100           
GREENWOOD      FAIR      96  69  41 E10       30.02F HX 102           
GREENVILLE     FAIR      96  69  41 E9        30.01F HX 102           
OLIVE BRANCH   MOSUNNY   95  64  36 E9        30.05F HX  97           
OXFORD         FAIR      95  66  38 CALM      30.06F HX  98           
TUNICA           N/A     91  70  49 E6        30.05F HX  97           
WINONA         FAIR      91  70  49 NE6       30.04S HX  96           
$$

MSZ003>006-009-014>017-022>024-029>033-037>039-152200-
NORTHEAST MISSISSIPPI
  
CITY           SKY/WX    TMP DP  RH WIND       PRES   REMARKS
ABERDEEN       FAIR      93  75  55 N6G12     30.04F HX 104           
COLUMBUS AFB   FAIR      93  71  48 SE6       30.03F HX  99           
CORINTH        FAIR      93  66  40 E5        30.05F HX  96           
GOLDN TRIANGLE FAIR      94  72  48 VRB3      30.04F HX 102           
STARKVILLE     FAIR      91  68  46 E7        30.05F HX  95           
TUPELO         FAIR      94  67  41 NE9       30.04F HX  97           
$$

MSZ040-058-152200-
CENTRAL MISSISSIPPI
  
CITY           SKY/WX    TMP DP  RH WIND       PRES   REMARKS
JACKSON INTL   FAIR      94  66  39 E10       30.01F HX  97           
JACKSON HAWKNS FAIR      94  68  42 NE8G16    30.02F HX  98           
MADISON        FAIR      91  66  43 NE6       30.03S HX  94           
MERIDIAN KEY   PTSUNNY   93  69  45 NE12      30.02F HX  98           
MERIDIAN NAS   PTSUNNY   91  68  46 E15       30.03F HX  95           
RAYMOND          N/A     95  72  46 VRB5      30.01S HX 103           
VICKSBURG VKS  PTCLDY    95  70  43 VRB8G15   30.00S HX 101           
$$

MSZ059>079-152200-
SOUTH MISSISSIPPI
  
CITY           SKY/WX    TMP DP  RH WIND       PRES   REMARKS
BROOKHAVEN     FAIR      91  70  49 N7        30.03F HX  97           
HATTIESBURG    PTSUNNY   91  70  49 NE8       30.01S HX  96           
LAUREL         MOCLDY    92  69  46 E15       30.01S HX  96           
MCCOMB         FAIR      91  69  48 NE8G18    30.01F HX  96           
NATCHEZ        FAIR      93  70  46 NE7       30.00F HX  99           
PINE BELT      FAIR      90  72  55 E7        30.02F HX  97           
$$

MSZ080>082-152200-
COASTAL MISSISSIPPI
  
CITY           SKY/WX    TMP DP  RH WIND       PRES   REMARKS
BILOXI         PTSUNNY   89  72  57 SE14      29.97S HX  95           
PASCAGOULA     FAIR      91  69  48 SE8       29.98S HX  96           
GULFPORT       FAIR      89  70  53 SE15      29.97R HX  94           
$$

LAZ007>009-015>016-023>026-152200-
NORTHEAST LOUISIANA
  
CITY           SKY/WX    TMP DP  RH WIND       PRES   REMARKS
BASTROP        FAIR      96  68  39 E5        30.01F HX 100           
TALLULAH/VBURG FAIR      96  70  42 NE9       30.00F HX 102           
VIDALIA        FAIR     N/A N/A N/A NE13      29.98F                  
$$